YODAKA

Last updated on Tue Feb 25 2025 00:02:08 GMT+0000 (Coordinated Universal Time)

1 62295U 98067XB 25055.38591370 .06914450 12179-4 17677-2 0 9990 2 62295 51.6156 134.7950 0009170 1.5324 358.5724 16.27903801 12117

Satellite not in orbit

YODAKA